This is the latest recevied weather packets stored in our database for station/object N6GPM. If no packets are shown the sender has not sent any weather packets the latest 10 day(s).
| Time | Temp. | Humidity | Pressure | Rain* | Wind** | Luminosity | Snow |
|---|---|---|---|---|---|---|---|
| 1787512466 | 34.44° C | 24% | 1018.5 hPa | 0 mm | - | 1004 W/m² | - |
| 1787512160 | 35° C | 24% | 1018.5 hPa | 0 mm | - | 1000 W/m² | - |
| 1787511855 | 35° C | 25% | 1018.5 hPa | 0 mm | - | 996 W/m² | - |
| 1787511555 | 35° C | 25% | 1018.4 hPa | 0 mm | - | 991 W/m² | - |
| 1787511254 | 35° C | 24% | 1018.4 hPa | 0 mm | - | 987 W/m² | - |
| 1787510948 | 34.44° C | 25% | 1018.4 hPa | 0 mm | - | 980 W/m² | - |
| 1787510643 | 34.44° C | 25% | 1018.6 hPa | 0 mm | - | 974 W/m² | - |
| 1787510339 | 35° C | 24% | 1018.6 hPa | 0 mm | - | 966 W/m² | - |
| 1787510035 | 34.44° C | 26% | 1018.6 hPa | 0 mm | - | 959 W/m² | - |
| 1787509730 | 34.44° C | 25% | 1018.5 hPa | 0 mm | - | 951 W/m² | - |
| 1787509427 | 34.44° C | 26% | 1018.7 hPa | 0 mm | - | 943 W/m² | - |
| 1787509123 | 35° C | 26% | 1018.8 hPa | 0 mm | - | 939 W/m² | - |
| 1787508817 | 35° C | 27% | 1018.7 hPa | 0 mm | - | 926 W/m² | - |
| 1787508512 | 35.56° C | 26% | 1018.5 hPa | 0 mm | - | 914 W/m² | - |
| 1787508209 | 35.56° C | 25% | 1018.7 hPa | 0 mm | - | 898 W/m² | - |
| 1787507904 | 35.56° C | 22% | 1018.7 hPa | 0 mm | - | 892 W/m² | - |
| 1787507601 | 35.56° C | 22% | 1018.7 hPa | 0 mm | - | 880 W/m² | - |
| 1787507296 | 36.11° C | 22% | 1018.5 hPa | 0 mm | - | 869 W/m² | - |
| 1787506992 | 35.56° C | 23% | 1018.5 hPa | 0 mm | - | 856 W/m² | - |
| 1787506688 | 35.56° C | 22% | 1018.4 hPa | 0 mm | - | 842 W/m² | - |
| 1787506384 | 35.56° C | 22% | 1018.7 hPa | 0 mm | - | 829 W/m² | - |
| 1787506078 | 35.56° C | 23% | 1018.7 hPa | 0 mm | - | 816 W/m² | - |
| 1787505774 | 35.56° C | 22% | 1018.5 hPa | 0 mm | - | 801 W/m² | - |
| 1787505469 | 35° C | 23% | 1018.7 hPa | 0 mm | - | 791 W/m² | - |
| 1787505164 | 33.89° C | 24% | 1018.6 hPa | 0 mm | - | 773 W/m² | - |
* Rain latest hour (hover to see other rain measurements)
** Current wind speed in m/s (hover to see current wind gust speed)